Home > Time Zones > World Clock > Weather > Spain > Palma > Past weeks

Flag for Spain Weather past 2 weeks in Palma, Majorca, Spain

Now
73 °F

Passing clouds.


Feels Like: 75 °F
Forecast: 65 / 80 °F
Wind: 1 mph from Southeast

Location: Palma De Mallorca / Son San Juan

Current Time: Jul 29, 2014 at 6:06:21 AM

Latest Report: Jul 29, 2014 at 5:30 AM


Visibility: N/A

Pressure: 29.83 "Hg

Humidity: 74%

Dew point: 64 °F

Location of PalmaLocation

Historic Weather in Palma — Graph

°F

Palma temperature yesterday

Maximum temperature yesterday: 86 °F (at 3:00 PM)
Minimum temperature yesterday: 70 °F (at 4:00 AM)
Average temperature yesterday: 79 °F

Past Weeks' High & Low Weather Summary

 TemperatureHumidityPressure
High97 °F (Jul 18, 1:30 PM)89% (Jul 19, 11:30 PM)30.12 "Hg (Jul 19, 11:30 PM)
Low63 °F (Jul 23, 7:00 AM)20% (Jul 18, 1:30 PM)29.80 "Hg (Jul 20, 4:00 AM)
Average79 °F62%29.97 "Hg
* Reported Jul 14 5:00 AM — Jul 29 5:00 AM, Palma, Weather by CustomWeather, © 2014

Note: Actual official high and low records may vary slightly from our data, if they occured in-between our weather recording intervals... More about our weather records

Advertising

Palma weather history for previous 24 hours

 ConditionsComfort  
Time TempWeatherWind HumidityBarometerVisibility
5:00 AM
Jul 29
72 °FPassing clouds.No wind78%29.83 "HgN/A
4:30 AM73 °FPassing clouds.No wind74%29.83 "HgN/A
4:00 AM73 °FPassing clouds.No wind74%29.83 "HgN/A
3:30 AM73 °FPassing clouds.No wind78%29.83 "HgN/A
3:00 AM73 °FPassing clouds.1 mph78%29.83 "HgN/A
2:30 AM73 °FPassing clouds.2 mph74%29.83 "HgN/A
2:00 AM73 °FPassing clouds.5 mph78%29.86 "HgN/A
1:30 AM73 °FPassing clouds.3 mph74%29.86 "HgN/A
1:00 AM75 °FPassing clouds.3 mph69%29.86 "HgN/A
12:30 AM77 °FPassing clouds.1 mph65%29.86 "HgN/A
12:00 AM79 °FPassing clouds.No wind70%29.89 "HgN/A
11:30 PM
Jul 28
79 °FPassing clouds.No wind65%29.89 "HgN/A
11:00 PM79 °FClear.1 mph65%29.89 "Hg10 mi
10:30 PM81 °FPassing clouds.3 mph62%29.89 "HgN/A
10:00 PM81 °FPassing clouds.5 mph54%29.86 "HgN/A
9:30 PM82 °FSunny.2 mph48%29.86 "Hg10 mi
9:00 PM82 °FPassing clouds.8 mph45%29.86 "HgN/A
8:30 PM84 °FPassing clouds.6 mph40%29.86 "HgN/A
8:00 PM84 °FPassing clouds.6 mph51%29.86 "HgN/A
7:30 PM84 °FPassing clouds.7 mph51%29.86 "HgN/A
7:00 PM84 °FPassing clouds.9 mph51%29.86 "HgN/A
6:30 PM84 °FPassing clouds.12 mph48%29.89 "HgN/A
6:00 PM84 °FPassing clouds.10 mph51%29.89 "HgN/A
5:30 PM84 °FPassing clouds.12 mph51%29.89 "HgN/A
5:00 PM86 °FPassing clouds.12 mph46%29.89 "HgN/A
4:30 PM86 °FPassing clouds.13 mph43%29.92 "HgN/A
4:00 PM86 °FPassing clouds.14 mph43%29.92 "HgN/A
3:30 PM86 °FPassing clouds.15 mph46%29.92 "HgN/A
3:00 PM86 °FPassing clouds.14 mph52%29.92 "HgN/A
2:30 PM84 °FPassing clouds.14 mph55%29.95 "HgN/A
2:00 PM84 °FPassing clouds.14 mph55%29.95 "HgN/A
1:30 PM84 °FPassing clouds.13 mph55%29.95 "HgN/A
1:00 PM84 °FPassing clouds.14 mph58%29.95 "HgN/A
12:30 PM84 °FPassing clouds.14 mph58%29.95 "HgN/A
12:00 PM82 °FPassing clouds.12 mph58%29.98 "HgN/A
11:30 AM84 °FPassing clouds.12 mph51%29.98 "HgN/A
11:00 AM84 °FPassing clouds.9 mph48%29.98 "HgN/A
10:30 AM84 °FSunny.No wind51%29.98 "Hg10 mi
10:00 AM82 °FSunny.No wind55%29.98 "Hg10 mi
9:30 AM81 °FSunny.1 mph62%29.98 "Hg10 mi
9:00 AM79 °FSunny.1 mph65%29.98 "Hg10 mi
8:30 AM75 °FSunny.1 mph69%29.98 "Hg10 mi
8:00 AM73 °FSunny.No wind69%29.98 "Hg10 mi
7:30 AM70 °FPassing clouds.1 mph73%29.98 "HgN/A
7:00 AM70 °FPassing clouds.1 mph78%29.98 "HgN/A
6:30 AM70 °FPassing clouds.2 mph78%29.98 "HgN/A
6:00 AM70 °FClear.1 mph83%29.98 "Hg10 mi
Weather by CustomWeather, © 2014

See weather overviewHow to use our weather pages